This is the latest recevied weather packets stored in our database for station/object KI5NXU. If no packets are shown the sender has not sent any weather packets the latest 10 day(s).
| Time | Temp. | Humidity | Pressure | Rain* | Wind** | Luminosity | Snow |
|---|---|---|---|---|---|---|---|
| 1788307839 | 35.56° C | 38% | 1012.9 hPa | 0 mm | - | 23 W/m² | - |
| 1788307534 | 35.56° C | 37% | 1013.2 hPa | 0 mm | - | 29 W/m² | - |
| 1788307230 | 35.56° C | 38% | 1012.9 hPa | 0 mm | - | 30 W/m² | - |
| 1788306924 | 36.11° C | 37% | 1013 hPa | 0 mm | - | 38 W/m² | - |
| 1788306619 | 36.11° C | 37% | 1012.7 hPa | 0 mm | - | 48 W/m² | - |
| 1788306318 | 36.11° C | 37% | 1012.8 hPa | 0 mm | - | 48 W/m² | - |
| 1788306013 | 36.11° C | 37% | 1012.8 hPa | 0 mm | - | 49 W/m² | - |
| 1788305708 | 36.11° C | 37% | 1012.8 hPa | 0 mm | - | 54 W/m² | - |
| 1788305405 | 36.11° C | 37% | 1013 hPa | 0 mm | - | 60 W/m² | - |
| 1788305100 | 36.67° C | 36% | 1012.9 hPa | 0 mm | - | 64 W/m² | - |
| 1788304794 | 36.67° C | 36% | 1013.3 hPa | 0 mm | - | 68 W/m² | - |
| 1788304491 | 37.22° C | 35% | 1012.8 hPa | 0 mm | - | 74 W/m² | - |
| 1788304188 | 37.78° C | 35% | 1012.9 hPa | 0 mm | - | 87 W/m² | - |
| 1788303887 | 38.33° C | 34% | 1013 hPa | 0 mm | - | 138 W/m² | - |
| 1788303582 | 38.33° C | 33% | 1012.9 hPa | 0 mm | - | 254 W/m² | - |
| 1788303281 | 38.33° C | 33% | 1012.9 hPa | 0 mm | - | 254 W/m² | - |
| 1788302977 | 37.78° C | 34% | 1012.9 hPa | 0 mm | - | 167 W/m² | - |
| 1788302673 | 38.33° C | 33% | 1012.9 hPa | 0 mm | - | 253 W/m² | - |
| 1788302369 | 37.22° C | 35% | 1013.2 hPa | 0 mm | - | 290 W/m² | - |
| 1788302064 | 37.22° C | 36% | 1013.3 hPa | 0 mm | - | 102 W/m² | - |
| 1788301759 | 37.22° C | 35% | 1012.9 hPa | 0 mm | - | 115 W/m² | - |
| 1788301456 | 38.33° C | 34% | 1012.9 hPa | 0 mm | - | 143 W/m² | - |
| 1788301151 | 38.89° C | 33% | 1012.9 hPa | 0 mm | - | 344 W/m² | - |
| 1788300847 | 38.89° C | 34% | 1013 hPa | 0 mm | - | 241 W/m² | - |
| 1788300542 | 39.44° C | 33% | 1012.9 hPa | 0 mm | - | 423 W/m² | - |
* Rain latest hour (hover to see other rain measurements)
** Current wind speed in m/s (hover to see current wind gust speed)